QPF
0.00 0.00 0.00 0.00 0.00 0.00 0.00 0.00 0.00 0.00 0.00 0.00 0.00 0.00 0.00 0.00 0.00 0.00 0.00 0.01 0.02 0.03 0.03 0.05 0.09 0.10 0.12 0.14 0.18 0.26 0.28 0.22 0.14 0.13 0.13 0.12 0.10 0.09 0.07 0.06 0.07 0.05 0.03 0.02
0.00 0.00 0.00 0.00 0.00 0.00 0.00 0.00 0.00 0.00 0.00 0.00 0.00 0.00 0.00 0.00 0.00 0.00 0.00 0.01 0.01 0.01 0.02 0.03 0.05 0.07 0.10 0.14 0.13 0.18 0.22 0.21 0.14 0.13 0.13 0.13 0.12 0.09 0.08 0.06 0.05 0.04 0.03 0.02
0.00 0.00 0.00 0.00 0.00 0.00 0.00 0.00 0.00 0.00 0.00 0.00 0.00 0.00 0.00 0.00 0.00 0.00 0.00 0.00 0.00 0.01 0.02 0.02 0.03 0.05 0.10 0.14 0.13 0.15 0.17 0.16 0.15 0.15 0.14 0.10 0.09 0.08 0.06 0.05 0.04 0.04 0.02 0.01
0.00 0.00 0.00 0.00 0.00 0.00 0.00 0.00 0.00 0.00 0.00 0.00 0.00 0.00 0.00 0.00 0.00 0.00 0.00 0.00 0.00 0.01 0.01 0.02 0.03 0.05 0.10 0.11 0.11 0.12 0.14 0.12 0.15 0.16 0.13 0.08 0.08 0.07 0.06 0.06 0.05 0.03 0.02 0.01
0.00 0.00 0.00 0.00 0.00 0.00 0.00 0.00 0.00 0.00 0.00 0.00 0.00 0.00 0.00 0.00 0.00 0.00 0.00 0.00 0.00 0.00 0.00 0.01 0.03 0.07 0.12 0.09 0.08 0.10 0.11 0.11 0.13 0.14 0.14 0.14 0.12 0.11 0.09 0.06 0.04 0.02 0.01 0.01
0.00 0.00 0.00 0.00 0.00 0.00 0.00 0.00 0.00 0.00 0.00 0.00 0.00 0.00 0.00 0.00 0.00 0.00 0.00 0.00 0.00 0.00 0.00 0.01 0.02 0.05 0.09 0.08 0.08 0.08 0.10 0.11 0.12 0.12 0.15 0.19 0.15 0.10 0.08 0.05 0.03 0.02 0.01 0.00
0.00 0.00 0.00 0.00 0.00 0.00 0.00 0.00 0.00 0.00 0.00 0.00 0.00 0.00 0.00 0.00 0.00 0.00 0.00 0.00 0.00 0.00 0.00 0.01 0.01 0.03 0.06 0.07 0.07 0.08 0.08 0.10 0.11 0.11 0.11 0.15 0.13 0.09 0.08 0.05 0.04 0.02 0.01 0.00
0.00 0.00 0.00 0.00 0.00 0.00 0.00 0.00 0.00 0.00 0.00 0.00 0.00 0.00 0.00 0.00 0.00 0.00 0.00 0.00 0.00 0.00 0.00 0.00 0.01 0.02 0.05 0.05 0.06 0.07 0.08 0.08 0.09 0.08 0.08 0.09 0.08 0.07 0.06 0.04 0.03 0.02 0.01 0.00
0.00 0.00 0.00 0.00 0.00 0.00 0.00 0.00 0.00 0.00 0.00 0.00 0.00 0.00 0.00 0.00 0.00 0.00 0.00 0.00 0.00 0.00 0.00 0.00 0.01 0.02 0.03 0.04 0.05 0.05 0.05 0.05 0.07 0.08 0.07 0.06 0.06 0.06 0.05 0.04 0.03 0.02 0.01 0.01
0.00 0.00 0.00 0.00 0.00 0.00 0.00 0.00 0.00 0.00 0.00 0.00 0.00 0.00 0.00 0.00 0.00 0.00 0.00 0.00 0.00 0.00 0.00 0.00 0.02 0.03 0.03 0.03 0.04 0.04 0.04 0.04 0.06 0.07 0.08 0.05 0.05 0.06 0.05 0.04 0.04 0.03 0.02 0.01
0.00 0.00 0.00 0.00 0.00 0.00 0.00 0.00 0.00 0.00 0.00 0.00 0.00 0.00 0.00 0.00 0.00 0.00 0.00 0.00 0.00 0.00 0.00 0.00 0.01 0.03 0.02 0.02 0.04 0.05 0.03 0.03 0.04 0.06 0.08 0.07 0.07 0.07 0.06 0.05 0.04 0.03 0.02 0.02
0.00 0.00 0.00 0.00 0.00 0.00 0.00 0.00 0.00 0.00 0.00 0.00 0.00 0.00 0.00 0.00 0.00 0.00 0.00 0.00 0.00 0.00 0.00 0.00 0.01 0.04 0.02 0.02 0.04 0.04 0.03 0.03 0.04 0.06 0.08 0.08 0.08 0.08 0.07 0.06 0.05 0.04 0.04 0.04
0.00 0.00 0.00 0.00 0.00 0.00 0.00 0.00 0.00 0.00 0.00 0.00 0.00 0.00 0.00 0.00 0.00 0.00 0.00 0.00 0.00 0.00 0.00 0.00 0.01 0.04 0.03 0.02 0.03 0.03 0.02 0.04 0.04 0.06 0.07 0.07 0.06 0.06 0.07 0.07 0.06 0.05 0.05 0.05
0.00 0.00 0.00 0.00 0.00 0.00 0.00 0.00 0.00 0.00 0.00 0.00 0.00 0.00 0.00 0.00 0.00 0.00 0.00 0.00 0.00 0.00 0.00 0.00 0.00 0.01 0.03 0.02 0.02 0.02 0.03 0.04 0.04 0.06 0.07 0.06 0.05 0.05 0.07 0.06 0.05 0.06 0.06 0.05
0.00 0.00 0.00 0.00 0.00 0.00 0.00 0.00 0.00 0.00 0.00 0.00 0.00 0.00 0.00 0.00 0.00 0.00 0.00 0.00 0.00 0.00 0.00 0.00 0.00 0.00 0.01 0.01 0.01 0.02 0.03 0.03 0.04 0.05 0.06 0.07 0.06 0.07 0.07 0.05 0.04 0.05 0.05 0.04
0.00 0.00 0.00 0.00 0.00 0.00 0.00 0.00 0.00 0.00 0.00 0.00 0.00 0.00 0.00 0.00 0.00 0.00 0.00 0.00 0.00 0.00 0.00 0.00 0.00 0.00 0.00 0.00 0.01 0.02 0.02 0.02 0.02 0.04 0.07 0.06 0.05 0.06 0.07 0.06 0.05 0.05 0.06 0.06
0.00 0.00 0.00 0.00 0.00 0.00 0.00 0.00 0.00 0.00 0.00 0.00 0.00 0.00 0.00 0.00 0.00 0.00 0.00 0.00 0.00 0.00 0.01 0.00 0.01 0.01 0.01 0.01 0.02 0.02 0.02 0.04 0.05 0.07 0.08 0.08 0.08 0.07 0.06 0.06 0.06 0.06 0.07 0.08
0.00 0.00 0.00 0.00 0.00 0.00 0.00 0.00 0.00 0.00 0.00 0.00 0.00 0.00 0.00 0.00 0.00 0.01 0.00 0.00 0.01 0.01 0.01 0.01 0.01 0.01 0.02 0.02 0.02 0.03 0.04 0.05 0.06 0.08 0.07 0.07 0.07 0.06 0.05 0.05 0.07 0.08 0.07 0.06
0.00 0.01 0.01 0.01 0.01 0.00 0.00 0.00 0.01 0.01 0.01 0.00 0.00 0.01 0.01 0.01 0.01 0.01 0.01 0.01 0.00 0.00 0.01 0.01 0.01 0.02 0.03 0.03 0.03 0.03 0.03 0.05 0.07 0.08 0.08 0.07 0.05 0.05 0.05 0.05 0.05 0.05 0.05 0.04
0.00 0.01 0.02 0.01 0.01 0.00 0.00 0.00 0.00 0.02 0.02 0.01 0.01 0.02 0.03 0.02 0.01 0.02 0.02 0.02 0.02 0.02 0.02 0.01 0.02 0.02 0.02 0.03 0.03 0.03 0.03 0.05 0.06 0.06 0.06 0.05 0.05 0.05 0.05 0.05 0.04 0.04 0.04 0.05
0.02 0.02 0.03 0.02 0.02 0.01 0.01 0.01 0.01 0.03 0.02 0.02 0.02 0.01 0.03 0.04 0.03 0.03 0.02 0.03 0.04 0.03 0.03 0.02 0.02 0.03 0.03 0.04 0.04 0.05 0.04 0.04 0.04 0.03 0.03 0.04 0.04 0.05 0.06 0.06 0.05 0.05 0.04 0.04
0.02 0.03 0.03 0.03 0.02 0.02 0.01 0.01 0.03 0.03 0.02 0.02 0.02 0.02 0.02 0.03 0.03 0.03 0.02 0.02 0.03 0.03 0.04 0.03 0.03 0.03 0.04 0.04 0.04 0.05 0.05 0.04 0.03 0.02 0.03 0.03 0.03 0.03 0.03 0.03 0.02 0.02 0.02 0.02
0.04 0.04 0.05 0.05 0.04 0.04 0.03 0.02 0.02 0.02 0.03 0.02 0.03 0.03 0.04 0.04 0.03 0.03 0.03 0.02 0.02 0.03 0.03 0.03 0.03 0.03 0.03 0.04 0.05 0.06 0.05 0.06 0.05 0.03 0.02 0.01 0.01 0.01 0.01 0.00 0.01 0.01 0.01 0.01
0.07 0.05 0.05 0.04 0.04 0.04 0.03 0.02 0.02 0.03 0.05 0.04 0.04 0.05 0.06 0.06 0.05 0.05 0.05 0.04 0.03 0.03 0.03 0.03 0.03 0.03 0.03 0.03 0.04 0.04 0.03 0.03 0.04 0.03 0.02 0.02 0.02 0.01 0.01 0.01 0.00 0.01 0.01 0.01
0.09 0.08 0.07 0.06 0.05 0.05 0.04 0.04 0.04 0.05 0.07 0.05 0.04 0.06 0.07 0.08 0.08 0.07 0.06 0.05 0.04 0.03 0.02 0.02 0.03 0.03 0.03 0.03 0.03 0.02 0.02 0.02 0.03 0.03 0.03 0.02 0.02 0.01 0.01 0.01 0.01 0.00 0.00 0.00
0.08 0.10 0.11 0.11 0.08 0.08 0.07 0.06 0.07 0.09 0.09 0.07 0.06 0.08 0.09 0.10 0.10 0.09 0.07 0.06 0.05 0.04 0.04 0.03 0.02 0.02 0.02 0.02 0.02 0.02 0.02 0.02 0.02 0.02 0.02 0.01 0.01 0.01 0.01 0.01 0.00 0.00 0.00 0.00
MSLP
1010.37 1010.80 1011.06 1011.15 1011.11 1010.96 1010.74 1010.48 1010.22 1009.95 1009.69 1009.43 1009.16 1008.89 1008.63 1008.41 1008.23 1008.12 1008.08 1008.12 1008.24 1008.42 1008.67 1008.97 1009.34 1009.76 1010.26 1010.82 1011.44 1012.10 1012.78 1013.44 1014.05 1014.59 1015.04 1015.39 1015.67 1015.89 1016.08 1016.26 1016.46 1016.66 1016.87 1017.07
1010.53 1010.87 1011.04 1011.07 1010.99 1010.84 1010.66 1010.47 1010.29 1010.10 1009.90 1009.67 1009.42 1009.13 1008.84 1008.57 1008.34 1008.19 1008.13 1008.16 1008.27 1008.46 1008.71 1009.01 1009.36 1009.77 1010.24 1010.79 1011.41 1012.08 1012.79 1013.50 1014.17 1014.76 1015.25 1015.63 1015.91 1016.10 1016.25 1016.38 1016.52 1016.68 1016.87 1017.07
1010.46 1010.70 1010.79 1010.77 1010.68 1010.56 1010.44 1010.35 1010.26 1010.17 1010.04 1009.85 1009.59 1009.28 1008.95 1008.62 1008.35 1008.16 1008.08 1008.11 1008.24 1008.45 1008.72 1009.03 1009.39 1009.78 1010.23 1010.75 1011.36 1012.03 1012.77 1013.51 1014.23 1014.88 1015.42 1015.83 1016.11 1016.29 1016.40 1016.48 1016.57 1016.69 1016.85 1017.05
1010.16 1010.30 1010.33 1010.28 1010.21 1010.15 1010.14 1010.16 1010.20 1010.21 1010.16 1010.00 1009.75 1009.40 1009.00 1008.61 1008.28 1008.05 1007.95 1007.99 1008.15 1008.40 1008.70 1009.04 1009.40 1009.79 1010.22 1010.72 1011.31 1011.97 1012.71 1013.49 1014.24 1014.94 1015.52 1015.97 1016.27 1016.45 1016.53 1016.57 1016.62 1016.70 1016.84 1017.03
1009.69 1009.75 1009.73 1009.68 1009.66 1009.70 1009.81 1009.98 1010.16 1010.28 1010.30 1010.18 1009.91 1009.51 1009.05 1008.58 1008.18 1007.91 1007.79 1007.84 1008.03 1008.33 1008.68 1009.06 1009.44 1009.83 1010.24 1010.72 1011.27 1011.92 1012.65 1013.43 1014.21 1014.94 1015.57 1016.05 1016.37 1016.55 1016.63 1016.65 1016.66 1016.72 1016.84 1017.04
1009.14 1009.13 1009.08 1009.06 1009.12 1009.27 1009.53 1009.85 1010.16 1010.39 1010.47 1010.37 1010.08 1009.63 1009.09 1008.54 1008.08 1007.76 1007.63 1007.69 1007.92 1008.27 1008.67 1009.10 1009.51 1009.91 1010.32 1010.77 1011.28 1011.89 1012.59 1013.36 1014.15 1014.90 1015.55 1016.06 1016.41 1016.61 1016.69 1016.71 1016.71 1016.75 1016.87 1017.07
1008.58 1008.52 1008.48 1008.50 1008.64 1008.92 1009.31 1009.76 1010.19 1010.51 1010.64 1010.55 1010.23 1009.72 1009.11 1008.49 1007.96 1007.61 1007.47 1007.55 1007.83 1008.23 1008.71 1009.19 1009.65 1010.07 1010.47 1010.89 1011.37 1011.92 1012.58 1013.31 1014.07 1014.81 1015.47 1016.00 1016.38 1016.60 1016.70 1016.73 1016.73 1016.78 1016.89 1017.10
1008.07 1007.99 1007.95 1008.03 1008.25 1008.63 1009.13 1009.68 1010.19 1010.56 1010.72 1010.62 1010.27 1009.71 1009.04 1008.36 1007.80 1007.43 1007.30 1007.42 1007.74 1008.21 1008.76 1009.31 1009.82 1010.27 1010.68 1011.08 1011.51 1012.01 1012.60 1013.27 1013.99 1014.69 1015.34 1015.87 1016.27 1016.51 1016.64 1016.68 1016.71 1016.76 1016.88 1017.08
1007.64 1007.55 1007.53 1007.65 1007.93 1008.37 1008.93 1009.53 1010.07 1010.46 1010.61 1010.49 1010.11 1009.52 1008.82 1008.12 1007.55 1007.19 1007.09 1007.25 1007.64 1008.18 1008.81 1009.43 1009.99 1010.49 1010.91 1011.29 1011.69 1012.13 1012.65 1013.25 1013.89 1014.55 1015.15 1015.67 1016.07 1016.33 1016.48 1016.55 1016.60 1016.66 1016.78 1016.98
1007.30 1007.20 1007.20 1007.34 1007.64 1008.10 1008.66 1009.25 1009.77 1010.13 1010.25 1010.10 1009.69 1009.09 1008.39 1007.71 1007.17 1006.85 1006.79 1007.02 1007.47 1008.09 1008.79 1009.48 1010.11 1010.64 1011.09 1011.48 1011.85 1012.24 1012.70 1013.21 1013.78 1014.37 1014.92 1015.41 1015.79 1016.06 1016.23 1016.33 1016.39 1016.47 1016.59 1016.78
1007.03 1006.94 1006.95 1007.09 1007.37 1007.79 1008.30 1008.82 1009.27 1009.55 1009.61 1009.43 1009.01 1008.42 1007.76 1007.14 1006.65 1006.40 1006.41 1006.70 1007.21 1007.89 1008.64 1009.39 1010.08 1010.66 1011.14 1011.55 1011.91 1012.28 1012.68 1013.14 1013.63 1014.14 1014.64 1015.08 1015.45 1015.72 1015.90 1016.02 1016.11 1016.20 1016.33 1016.50
1006.83 1006.77 1006.78 1006.90 1007.14 1007.48 1007.88 1008.28 1008.61 1008.79 1008.78 1008.55 1008.14 1007.59 1006.99 1006.45 1006.05 1005.87 1005.95 1006.29 1006.85 1007.56 1008.35 1009.13 1009.85 1010.47 1011.00 1011.44 1011.82 1012.19 1012.57 1012.99 1013.43 1013.88 1014.32 1014.73 1015.07 1015.33 1015.53 1015.67 1015.79 1015.90 1016.03 1016.20
1006.75 1006.71 1006.73 1006.83 1006.99 1007.22 1007.48 1007.73 1007.91 1007.96 1007.86 1007.60 1007.19 1006.70 1006.18 1005.74 1005.44 1005.34 1005.47 1005.84 1006.40 1007.11 1007.88 1008.67 1009.40 1010.06 1010.62 1011.11 1011.53 1011.94 1012.33 1012.74 1013.16 1013.59 1013.99 1014.37 1014.69 1014.95 1015.16 1015.33 1015.48 1015.63 1015.78 1015.96
1006.80 1006.82 1006.85 1006.91 1006.99 1007.10 1007.20 1007.27 1007.29 1007.21 1007.02 1006.71 1006.33 1005.89 1005.47 1005.12 1004.91 1004.87 1005.04 1005.40 1005.93 1006.58 1007.30 1008.04 1008.76 1009.42 1010.02 1010.56 1011.06 1011.52 1011.97 1012.41 1012.85 1013.28 1013.68 1014.04 1014.36 1014.63 1014.86 1015.07 1015.26 1015.45 1015.64 1015.85
1007.03 1007.11 1007.16 1007.19 1007.19 1007.17 1007.11 1007.01 1006.86 1006.64 1006.36 1006.03 1005.66 1005.28 1004.94 1004.68 1004.54 1004.55 1004.71 1005.03 1005.48 1006.04 1006.67 1007.33 1007.99 1008.64 1009.27 1009.86 1010.43 1010.98 1011.51 1012.03 1012.52 1012.98 1013.40 1013.78 1014.11 1014.41 1014.67 1014.92 1015.16 1015.41 1015.66 1015.91
1007.45 1007.58 1007.66 1007.66 1007.59 1007.44 1007.24 1006.98 1006.67 1006.33 1005.97 1005.60 1005.25 1004.93 1004.66 1004.48 1004.39 1004.42 1004.55 1004.80 1005.15 1005.58 1006.08 1006.63 1007.21 1007.82 1008.45 1009.09 1009.74 1010.39 1011.02 1011.63 1012.21 1012.73 1013.20 1013.61 1013.98 1014.30 1014.61 1014.91 1015.21 1015.52 1015.84 1016.16
1008.00 1008.19 1008.28 1008.26 1008.12 1007.87 1007.54 1007.13 1006.70 1006.25 1005.82 1005.43 1005.09 1004.82 1004.62 1004.50 1004.46 1004.49 1004.59 1004.75 1004.98 1005.27 1005.63 1006.05 1006.54 1007.09 1007.71 1008.38 1009.10 1009.84 1010.58 1011.29 1011.96 1012.56 1013.09 1013.55 1013.96 1014.33 1014.68 1015.03 1015.39 1015.77 1016.17 1016.57
1008.58 1008.80 1008.90 1008.86 1008.67 1008.34 1007.90 1007.39 1006.85 1006.32 1005.84 1005.44 1005.13 1004.91 1004.77 1004.71 1004.71 1004.75 1004.82 1004.91 1005.03 1005.19 1005.41 1005.70 1006.09 1006.57 1007.16 1007.85 1008.61 1009.43 1010.25 1011.06 1011.81 1012.49 1013.09 1013.61 1014.07 1014.48 1014.87 1015.27 1015.69 1016.13 1016.59 1017.07
1009.08 1009.30 1009.39 1009.32 1009.09 1008.70 1008.19 1007.60 1007.00 1006.43 1005.93 1005.54 1005.26 1005.10 1005.04 1005.05 1005.10 1005.16 1005.22 1005.27 1005.32 1005.38 1005.49 1005.67 1005.96 1006.37 1006.92 1007.60 1008.38 1009.23 1010.12 1010.99 1011.81 1012.55 1013.20 1013.77 1014.27 1014.71 1015.15 1015.59 1016.05 1016.55 1017.07 1017.60
1009.36 1009.56 1009.63 1009.53 1009.26 1008.84 1008.30 1007.69 1007.06 1006.49 1006.01 1005.65 1005.43 1005.34 1005.35 1005.44 1005.57 1005.68 1005.77 1005.82 1005.84 1005.85 1005.89 1005.99 1006.20 1006.54 1007.04 1007.68 1008.44 1009.30 1010.20 1011.10 1011.95 1012.73 1013.41 1014.01 1014.54 1015.01 1015.47 1015.95 1016.44 1016.98 1017.54 1018.12
1009.36 1009.51 1009.54 1009.43 1009.15 1008.73 1008.20 1007.61 1007.02 1006.49 1006.05 1005.76 1005.61 1005.60 1005.71 1005.90 1006.11 1006.31 1006.46 1006.55 1006.59 1006.59 1006.60 1006.66 1006.82 1007.10 1007.53 1008.11 1008.82 1009.63 1010.51 1011.39 1012.23 1013.01 1013.71 1014.32 1014.86 1015.36 1015.84 1016.33 1016.85 1017.41 1018.01 1018.61
1009.08 1009.18 1009.18 1009.06 1008.81 1008.44 1007.97 1007.45 1006.93 1006.48 1006.13 1005.92 1005.86 1005.94 1006.15 1006.43 1006.74 1007.03 1007.27 1007.44 1007.54 1007.58 1007.60 1007.65 1007.77 1007.99 1008.35 1008.86 1009.49 1010.23 1011.03 1011.85 1012.65 1013.40 1014.08 1014.68 1015.23 1015.73 1016.22 1016.73 1017.27 1017.84 1018.45 1019.08
1008.61 1008.66 1008.65 1008.56 1008.37 1008.08 1007.72 1007.32 1006.93 1006.59 1006.34 1006.23 1006.26 1006.44 1006.73 1007.10 1007.50 1007.89 1008.23 1008.48 1008.66 1008.76 1008.83 1008.88 1008.98 1009.16 1009.45 1009.86 1010.39 1011.02 1011.72 1012.45 1013.17 1013.86 1014.50 1015.08 1015.62 1016.12 1016.63 1017.14 1017.69 1018.28 1018.90 1019.53
1008.07 1008.11 1008.12 1008.09 1008.00 1007.85 1007.63 1007.39 1007.14 1006.94 1006.82 1006.80 1006.92 1007.16 1007.51 1007.95 1008.42 1008.88 1009.30 1009.64 1009.90 1010.08 1010.19 1010.28 1010.37 1010.51 1010.73 1011.05 1011.46 1011.97 1012.54 1013.15 1013.78 1014.39 1014.97 1015.51 1016.03 1016.53 1017.04 1017.57 1018.13 1018.73 1019.35 1019.98
1007.63 1007.68 1007.76 1007.83 1007.87 1007.88 1007.84 1007.77 1007.68 1007.62 1007.61 1007.69 1007.86 1008.14 1008.53 1008.99 1009.49 1009.99 1010.47 1010.87 1011.20 1011.44 1011.61 1011.73 1011.82 1011.94 1012.09 1012.31 1012.61 1012.99 1013.43 1013.92 1014.43 1014.95 1015.47 1015.97 1016.46 1016.95 1017.46 1018.00 1018.57 1019.17 1019.79 1020.42
1007.39 1007.51 1007.68 1007.88 1008.08 1008.25 1008.39 1008.50 1008.57 1008.64 1008.73 1008.86 1009.07 1009.35 1009.72 1010.17 1010.66 1011.16 1011.66 1012.10 1012.47 1012.77 1012.98 1013.13 1013.24 1013.33 1013.44 1013.58 1013.78 1014.03 1014.35 1014.71 1015.11 1015.54 1015.98 1016.43 1016.89 1017.37 1017.87 1018.41 1018.98 1019.59 1020.21 1020.83
Thickness
5792 5784 5781 5789 5793 5789 5786 5783 5784 5793 5805 5800 5798 5798 5800 5797 5791 5784 5778 5773 5767 5763 5762 5757 5752 5748 5744 5740 5737 5734 5732 5731 5730 5730 5729 5728 5728 5729 5731 5732 5730 5730 5731 5731
5778 5776 5791 5795 5790 5784 5782 5779 5786 5796 5803 5796 5795 5796 5800 5795 5789 5785 5779 5773 5769 5764 5759 5754 5750 5747 5743 5740 5736 5733 5730 5730 5729 5729 5729 5728 5728 5728 5729 5729 5728 5728 5729 5729
5775 5788 5794 5786 5780 5776 5780 5780 5784 5784 5795 5799 5791 5793 5793 5794 5791 5786 5782 5777 5772 5765 5758 5753 5748 5745 5742 5738 5736 5733 5730 5730 5728 5727 5726 5725 5724 5724 5725 5725 5726 5727 5727 5728
5780 5791 5784 5777 5777 5778 5774 5790 5787 5784 5782 5787 5784 5773 5789 5791 5786 5783 5780 5776 5771 5766 5760 5753 5748 5744 5741 5738 5735 5732 5729 5728 5727 5726 5725 5724 5724 5723 5725 5725 5725 5725 5725 5726
5776 5783 5777 5771 5779 5782 5782 5791 5786 5784 5781 5779 5785 5773 5787 5789 5782 5782 5781 5777 5773 5767 5761 5754 5749 5745 5742 5739 5735 5731 5727 5725 5724 5724 5724 5723 5724 5724 5725 5724 5722 5723 5724 5724
5783 5789 5785 5784 5789 5789 5788 5782 5782 5783 5783 5766 5777 5769 5776 5789 5784 5784 5782 5777 5772 5767 5761 5755 5750 5746 5741 5738 5734 5730 5726 5723 5722 5721 5722 5723 5723 5722 5721 5720 5720 5721 5723 5723
5767 5777 5787 5789 5778 5783 5780 5768 5760 5760 5763 5768 5780 5771 5779 5792 5792 5788 5783 5777 5772 5767 5761 5755 5749 5744 5739 5736 5732 5729 5725 5722 5721 5721 5721 5722 5721 5720 5718 5719 5719 5720 5722 5722
5757 5763 5782 5786 5778 5776 5777 5775 5756 5749 5756 5772 5779 5771 5787 5796 5795 5791 5787 5780 5773 5768 5764 5757 5751 5745 5740 5736 5732 5729 5725 5721 5721 5720 5720 5719 5719 5719 5719 5718 5720 5720 5722 5723
5765 5764 5784 5788 5791 5784 5773 5774 5790 5773 5768 5760 5774 5782 5793 5794 5789 5787 5784 5778 5773 5769 5765 5759 5752 5747 5742 5737 5733 5730 5725 5722 5720 5719 5718 5717 5718 5718 5718 5717 5717 5720 5720 5721
5774 5760 5778 5783 5785 5783 5785 5786 5775 5766 5748 5747 5765 5773 5780 5785 5785 5784 5781 5778 5773 5770 5766 5760 5755 5749 5744 5739 5734 5730 5726 5723 5720 5719 5718 5717 5716 5715 5715 5715 5715 5717 5718 5717
5774 5758 5768 5773 5769 5772 5769 5770 5772 5773 5770 5752 5751 5770 5797 5793 5792 5787 5784 5782 5776 5771 5767 5762 5756 5751 5746 5741 5736 5731 5727 5724 5721 5720 5718 5717 5715 5715 5714 5713 5714 5715 5715 5714
5768 5762 5760 5770 5784 5785 5780 5778 5773 5758 5758 5762 5758 5774 5802 5800 5798 5793 5788 5783 5779 5773 5769 5764 5758 5752 5746 5742 5738 5733 5729 5725 5723 5721 5718 5716 5715 5714 5713 5713 5713 5713 5713 5713
5759 5750 5742 5752 5762 5768 5769 5775 5777 5773 5766 5762 5758 5774 5797 5796 5793 5791 5787 5782 5777 5771 5768 5763 5757 5751 5747 5743 5740 5736 5732 5729 5726 5722 5719 5717 5715 5714 5713 5712 5712 5712 5711 5711
5753 5747 5746 5747 5756 5765 5761 5766 5770 5766 5761 5763 5768 5778 5788 5788 5787 5786 5784 5780 5776 5770 5765 5761 5755 5750 5747 5744 5740 5737 5734 5731 5728 5724 5720 5717 5715 5714 5712 5711 5710 5709 5709 5709
5744 5740 5746 5754 5760 5761 5759 5761 5763 5760 5764 5763 5773 5778 5787 5789 5786 5784 5782 5778 5773 5767 5762 5758 5753 5749 5746 5742 5739 5737 5734 5731 5728 5723 5719 5717 5715 5714 5711 5709 5708 5707 5707 5707
5732 5729 5734 5737 5748 5750 5748 5756 5758 5759 5763 5764 5768 5773 5789 5787 5783 5779 5777 5773 5768 5764 5761 5757 5752 5748 5744 5741 5739 5736 5733 5730 5726 5721 5718 5716 5713 5711 5708 5707 5705 5703 5701 5700
5723 5717 5715 5722 5737 5734 5730 5750 5754 5757 5764 5763 5760 5773 5779 5773 5769 5768 5769 5768 5763 5761 5758 5755 5751 5747 5743 5740 5738 5734 5731 5727 5722 5718 5716 5713 5710 5707 5705 5704 5700 5697 5694 5691
5707 5705 5707 5713 5713 5698 5738 5759 5755 5752 5759 5766 5766 5767 5766 5761 5758 5758 5759 5760 5758 5756 5753 5749 5746 5742 5739 5737 5734 5731 5727 5722 5717 5713 5711 5708 5705 5702 5699 5696 5693 5689 5685 5681
5704 5697 5697 5700 5699 5709 5732 5740 5740 5736 5741 5754 5753 5753 5750 5747 5744 5742 5744 5747 5747 5746 5744 5742 5741 5737 5734 5731 5728 5724 5719 5714 5710 5706 5703 5701 5698 5695 5691 5687 5682 5679 5675 5671
5693 5691 5687 5688 5682 5687 5717 5728 5732 5725 5720 5737 5738 5736 5737 5735 5732 5732 5729 5730 5731 5731 5732 5731 5731 5728 5724 5722 5720 5715 5710 5705 5700 5697 5694 5692 5689 5686 5681 5675 5671 5668 5665 5661
5676 5676 5676 5678 5678 5694 5710 5716 5717 5699 5708 5720 5724 5724 5725 5724 5725 5720 5717 5715 5715 5716 5717 5718 5718 5715 5712 5710 5708 5703 5698 5693 5689 5687 5684 5680 5677 5673 5669 5664 5660 5657 5654 5649
5670 5671 5671 5673 5670 5681 5699 5702 5696 5698 5705 5709 5711 5713 5712 5709 5706 5704 5701 5699 5700 5701 5702 5703 5702 5699 5697 5696 5693 5688 5683 5679 5677 5675 5671 5667 5664 5662 5657 5653 5648 5645 5641 5636
5664 5667 5668 5669 5675 5682 5687 5686 5690 5693 5693 5697 5699 5700 5698 5694 5690 5688 5686 5685 5685 5686 5687 5687 5685 5683 5681 5679 5677 5673 5668 5666 5663 5660 5656 5653 5651 5648 5645 5641 5637 5634 5631 5629
5661 5663 5660 5662 5673 5676 5679 5681 5682 5684 5685 5688 5689 5689 5687 5682 5678 5675 5673 5671 5671 5671 5671 5670 5670 5667 5664 5662 5660 5657 5654 5652 5650 5646 5643 5640 5637 5634 5630 5628 5627 5623 5620 5617
5655 5654 5653 5656 5664 5666 5669 5669 5670 5672 5676 5677 5678 5677 5675 5670 5665 5662 5659 5657 5657 5657 5656 5655 5653 5651 5648 5646 5644 5642 5640 5639 5637 5634 5631 5628 5624 5620 5614 5609 5603 5603 5595 5594
5651 5648 5644 5647 5654 5653 5655 5658 5660 5661 5662 5665 5665 5663 5662 5658 5653 5650 5646 5644 5643 5642 5642 5640 5639 5637 5635 5633 5631 5629 5627 5626 5625 5622 5619 5618 5614 5609 5605 5597 5587 5576 5575 5571